Wind_Speed
15 22 23 24 25 24 24 24 26 28 28 29 28 27 25 24 24 22 22 21 21 21 21 21 21 20 20 20 20 20 20 18 17 16 15 14 14 14 13 11 11 9 8 8 8 7 5 3 3 2 2 2 1 0 2 3 3 4 5 5 6 7 7 5 4 5 5 5 3 2 2 2 3 4 4 5 6 7 8 9 8 8 7 5 4
13 17 20 23 23 24 25 25 26 27 28 29 28 27 25 25 26 25 24 23 22 22 22 21 20 20 20 21 22 21 20 18 16 15 13 12 14 15 14 12 11 9 9 9 9 8 6 5 4 3 3 2 2 2 1 3 3 4 4 4 5 8 8 6 5 6 5 4 3 1 1 2 3 4 5 6 6 8 9 8 8 8 7 6 4
10 12 17 22 23 24 25 25 26 27 28 28 28 28 27 27 27 26 25 24 23 23 23 21 19 19 21 21 21 21 19 17 15 14 12 11 12 15 15 13 11 10 10 9 9 8 7 6 5 4 4 3 3 2 0 2 3 4 5 6 5 6 7 7 3 5 5 5 3 2 1 2 3 4 4 5 5 7 9 8 8 7 6 6 6
11 11 14 19 22 23 23 25 26 26 26 26 28 29 28 28 27 26 25 25 26 25 23 21 18 18 21 20 20 20 19 19 16 14 13 11 11 13 14 14 13 11 10 10 10 9 8 7 5 4 4 4 4 2 0 2 4 4 6 7 6 5 5 6 4 2 5 5 2 1 1 2 1 3 4 4 4 4 6 7 7 7 7 8 9
13 12 12 16 20 22 24 25 27 26 26 26 28 30 29 29 29 26 25 26 27 25 23 21 18 18 20 20 18 18 18 19 19 18 16 14 12 13 13 13 14 13 11 10 9 9 8 7 6 5 4 3 3 1 0 2 3 4 6 7 7 7 6 5 6 4 3 3 1 1 1 2 2 2 3 3 3 3 1 3 5 6 8 9 9
13 13 13 15 19 21 23 25 26 26 27 28 29 29 29 30 29 27 26 26 26 24 23 21 18 18 21 21 19 18 18 19 20 20 18 16 13 12 11 11 13 14 12 11 10 8 7 8 7 6 4 4 3 1 1 2 2 3 4 5 5 6 5 5 6 7 6 4 2 0 1 2 2 1 1 2 3 4 3 0 1 3 4 3 5
11 13 14 16 19 20 21 24 26 27 28 29 29 29 30 30 29 28 27 26 26 24 23 21 19 19 21 22 20 19 20 20 19 18 16 15 13 11 11 10 12 13 13 12 10 8 7 7 7 6 5 4 3 1 1 1 2 2 2 3 3 4 4 6 7 6 5 5 4 3 2 1 1 1 1 1 3 2 2 1 1 5 5 2 4
11 11 13 16 20 21 22 25 27 29 29 29 28 29 30 30 29 29 28 27 26 25 23 21 20 20 20 20 20 20 20 20 19 17 15 14 13 12 11 11 12 12 12 11 9 7 8 8 7 6 5 5 3 2 1 1 2 1 1 1 2 3 4 5 7 6 5 5 5 5 4 1 1 1 0 1 2 1 4 3 3 7 6 4 5
12 12 13 16 21 24 25 27 28 29 29 29 29 29 30 30 29 28 28 28 27 25 23 21 20 21 21 20 20 19 20 19 18 17 15 14 14 13 12 12 13 13 11 10 8 7 8 8 8 7 6 5 4 3 2 2 3 2 1 0 0 2 2 3 5 6 5 5 6 6 5 3 2 2 1 2 3 1 2 3 5 8 6 5 6
13 13 16 20 24 26 27 27 27 28 30 30 29 29 29 29 28 28 28 29 28 25 22 21 21 21 21 21 21 20 20 19 18 18 17 16 16 15 13 14 14 13 12 11 10 9 8 9 9 7 6 5 5 4 3 3 3 3 2 2 1 2 3 2 3 4 4 5 6 6 6 5 3 1 1 1 1 1 1 3 5 6 6 7 8
12 13 16 22 26 27 27 26 27 28 29 29 28 28 29 29 28 27 27 28 28 26 23 21 22 22 22 22 22 21 21 20 20 20 18 17 18 17 15 16 15 13 12 12 11 10 9 9 9 8 7 6 6 5 4 4 4 4 3 2 2 3 3 2 2 2 3 4 5 5 5 5 3 1 2 2 1 1 1 3 5 5 6 8 9
12 11 13 17 20 22 24 25 26 27 27 28 28 29 29 29 29 27 26 27 27 26 24 23 22 22 23 23 22 22 22 22 22 22 20 19 19 18 16 17 16 14 13 13 12 11 9 9 8 9 9 7 6 5 5 4 4 5 4 3 3 4 3 3 2 2 4 4 5 4 4 4 3 3 3 3 3 3 1 3 4 5 5 7 10
11 11 11 12 14 18 22 23 24 26 27 28 28 29 29 30 29 28 27 27 26 25 25 24 23 22 22 23 23 23 23 22 22 22 21 20 19 19 18 18 17 16 15 14 13 11 10 10 9 9 9 8 7 6 6 5 5 5 4 4 4 5 4 3 2 2 4 5 6 5 3 3 3 4 4 4 4 3 2 3 4 4 4 6 9
11 11 11 11 14 19 23 24 25 26 28 29 29 30 30 29 29 29 28 28 27 26 25 24 23 22 21 22 23 23 22 22 21 21 21 21 21 19 19 19 19 18 16 15 14 12 11 10 9 9 9 9 8 8 7 6 6 6 5 5 5 6 5 3 3 3 4 5 6 5 4 3 4 5 6 5 3 3 4 3 3 4 4 5 6
10 11 12 13 18 23 24 25 26 27 28 29 29 30 30 30 31 30 29 29 28 27 26 25 24 22 21 21 22 22 22 21 20 20 21 22 21 20 19 19 19 18 16 15 14 12 11 11 10 9 9 9 9 9 8 7 7 7 6 6 6 6 5 4 4 4 4 5 5 6 5 5 5 6 6 5 4 3 4 3 2 3 3 4 5
10 12 12 14 21 24 24 26 27 28 29 29 29 31 31 31 32 32 31 30 30 29 28 26 25 24 23 22 22 21 22 21 20 20 21 21 20 20 19 19 18 17 15 14 13 12 12 12 11 10 9 10 10 10 9 9 8 8 8 7 7 6 6 5 5 5 4 5 6 6 6 6 5 5 5 5 5 4 4 4 4 1 0 2 4
10 12 12 14 20 23 25 27 28 28 29 30 31 32 33 33 32 32 32 31 31 30 29 27 26 25 25 24 22 22 22 21 21 21 21 20 19 19 19 18 17 16 15 14 13 13 12 12 12 11 11 11 11 11 11 10 10 10 9 8 8 7 7 7 6 6 5 6 7 6 6 6 5 5 5 5 6 6 5 5 6 4 2 2 1
10 11 13 15 19 22 24 27 29 31 31 32 33 34 34 34 34 33 32 32 32 31 30 29 27 27 26 25 23 22 22 22 21 21 21 20 19 18 18 18 17 16 15 14 14 14 14 13 13 12 12 12 11 10 10 10 10 10 9 8 7 7 7 7 7 7 7 8 8 7 5 5 5 5 4 5 6 6 7 7 7 6 5 4 4
8 9 10 12 17 22 25 27 29 31 32 34 35 34 34 35 35 35 34 34 34 32 30 29 29 28 27 26 24 23 22 22 21 21 20 20 19 19 18 18 16 16 16 15 15 15 15 14 14 13 13 12 11 10 9 9 10 11 10 8 7 7 8 8 8 8 9 9 9 7 6 5 5 4 3 4 5 6 7 8 8 8 8 7 6
7 8 9 11 17 23 26 28 30 31 32 32 33 33 34 34 34 34 34 34 33 31 30 30 29 28 27 25 25 24 22 21 20 20 21 20 20 19 18 17 15 15 16 15 15 15 15 15 14 13 13 12 11 10 10 10 10 10 10 9 8 8 9 9 9 8 8 9 9 8 6 6 5 5 5 5 6 7 8 8 8 8 8 8 8
7 8 9 12 19 24 27 28 30 31 31 31 32 33 33 33 34 34 32 31 31 31 30 30 29 28 27 26 25 24 22 21 20 20 20 20 19 19 18 16 15 15 15 15 15 15 15 14 14 14 14 13 13 12 11 11 10 10 10 10 10 9 10 10 9 8 8 9 9 9 8 7 6 6 7 7 8 9 9 8 8 8 8 8 9
7 7 5 6 9 15 21 26 28 29 29 30 31 33 32 32 32 32 31 31 31 31 30 30 29 28 28 26 24 23 22 22 21 20 20 20 20 19 17 16 16 15 16 16 15 15 15 15 15 14 14 14 13 13 12 12 12 11 10 10 10 10 10 10 10 10 9 8 9 9 8 8 8 8 9 9 9 8 8 8 8 8 8 8 8
7 7 6 8 9 4 3 11 17 24 28 31 31 30 31 32 32 31 31 31 32 32 31 30 29 28 28 26 24 23 22 22 22 21 20 20 20 19 17 17 17 16 16 16 16 16 16 16 15 15 15 15 14 13 13 13 13 12 11 11 10 10 11 11 11 10 9 9 9 9 9 9 10 10 11 11 11 9 8 8 8 9 9 9 8
9 7 7 11 15 11 5 2 1 6 12 20 28 32 31 30 31 32 32 32 32 31 31 30 29 28 27 26 25 23 22 21 22 22 21 20 21 20 18 17 17 17 17 16 16 16 16 16 16 16 16 15 14 14 13 13 13 13 12 12 11 11 11 11 11 11 10 10 10 10 10 11 11 12 12 12 12 12 10 9 9 9 9 10 9
9 9 9 10 12 12 10 8 6 4 4 3 9 21 30 32 32 32 32 32 32 31 30 30 29 28 26 26 25 24 23 22 22 22 22 21 22 21 20 19 18 18 18 17 17 17 17 18 18 18 17 17 16 15 15 14 14 13 13 13 12 12 12 12 12 12 12 12 12 12 12 12 12 12 12 12 12 12 11 10 10 9 9 10 10
10 11 11 12 12 13 14 16 15 13 10 6 7 5 11 18 22 25 25 24 25 27 30 30 29 28 27 26 26 25 24 23 23 22 22 22 22 22 21 20 20 20 20 19 19 19 20 20 20 19 19 19 18 17 17 16 16 15 14 14 13 12 12 13 13 13 13 13 13 13 14 13 12 12 12 12 12 12 11 11 11 10 10 11 10
8 8 8 9 12 15 18 20 20 18 18 18 12 7 6 7 8 14 20 21 19 19 24 27 28 28 27 27 27 26 25 23 23 22 21 21 21 21 21 20 21 21 22 22 22 22 22 21 21 21 20 20 20 20 19 18 17 16 15 15 14 13 13 14 15 15 14 14 14 14 14 14 13 13 13 13 13 13 13 12 11 10 10 12 12
5 5 5 6 7 10 14 18 20 21 21 22 22 19 16 14 11 12 17 22 21 18 19 21 23 25 25 25 25 25 24 23 23 22 21 21 20 20 20 20 20 21 21 22 23 23 22 22 22 22 22 22 21 21 21 20 18 17 17 16 15 14 15 15 15 15 15 14 14 14 14 14 13 12 13 12 11 11 12 12 11 11 11 12 12
4 4 4 4 4 5 10 13 17 21 22 23 25 25 25 27 26 22 21 23 23 23 23 22 22 23 23 24 24 24 24 24 24 24 23 22 21 21 20 19 19 19 19 20 21 22 22 22 23 23 24 25 25 23 22 21 19 18 17 17 17 16 17 17 17 16 15 14 13 13 13 12 11 10 10 9 10 11 11 11 11 11 11 11 10
4 4 3 4 3 4 7 11 15 19 21 23 26 27 28 29 29 30 29 25 23 25 25 24 24 24 23 23 21 21 23 24 24 24 24 23 23 23 21 18 17 16 15 15 16 17 19 21 22 23 24 25 26 26 24 22 20 20 19 19 19 19 19 19 18 17 16 14 13 12 11 10 10 9 8 8 9 10 11 11 12 11 11 10 10
4 4 4 4 4 5 6 9 12 15 18 21 24 27 29 27 25 28 31 27 24 24 24 23 23 23 22 21 18 17 19 21 22 22 23 23 23 23 21 18 18 17 16 15 14 14 14 15 17 19 22 24 26 26 25 23 21 21 20 20 20 20 21 21 19 18 18 16 14 13 11 9 9 9 9 9 9 10 10 12 12 12 12 11 11
4 4 5 5 4 5 6 8 11 13 15 17 21 24 27 28 26 27 29 27 24 23 22 20 19 18 19 20 18 16 17 19 19 20 20 20 21 21 19 18 18 18 17 16 15 14 13 13 13 13 16 20 23 24 24 22 22 22 21 20 20 21 22 22 22 20 19 18 16 14 12 10 9 10 10 10 10 10 11 12 12 12 12 11 10
5 5 6 6 7 9 10 10 12 14 15 16 19 21 22 24 25 24 24 25 24 22 20 20 18 17 18 19 18 16 16 16 17 17 16 16 15 15 14 14 15 14 14 14 13 12 12 12 12 11 12 14 18 21 22 21 22 22 21 21 20 20 21 22 23 22 21 19 17 15 13 11 11 11 10 10 10 10 11 11 11 11 10 10 10
7 7 7 7 10 14 16 15 15 17 16 15 17 17 16 17 19 19 18 19 20 20 19 19 19 18 18 18 16 15 14 14 14 14 14 14 13 12 12 12 12 11 11 11 11 11 10 10 10 10 10 11 13 16 19 20 21 21 21 21 21 20 20 22 23 24 23 21 19 17 15 13 12 12 12 12 12 12 12 11 9 8 8 9 9
7 7 7 9 11 13 15 16 17 19 20 19 18 18 17 17 17 18 17 16 17 16 15 16 16 16 15 15 14 13 13 12 12 13 13 13 13 13 13 13 13 12 11 11 10 9 9 10 10 10 10 11 13 15 17 19 19 19 19 19 18 18 19 20 22 23 24 23 21 19 17 15 14 13 13 14 14 13 12 10 8 7 7 7 8
7 8 10 12 14 14 14 16 17 19 21 22 21 20 19 18 17 17 16 15 14 14 12 12 12 11 10 9 9 9 9 9 10 10 10 10 10 11 12 13 12 11 11 10 7 6 6 8 9 10 11 12 13 14 15 16 16 17 17 17 18 19 20 20 21 23 24 24 21 19 18 16 15 14 14 14 14 13 11 9 8 8 8 7 7
11 13 15 17 17 15 15 16 17 18 18 19 19 20 20 19 18 16 14 12 11 11 11 10 8 6 6 5 4 4 4 5 6 7 9 11 11 12 13 12 10 8 7 6 7 10 11 11 10 11 12 13 14 14 14 15 15 15 16 16 17 19 21 20 21 22 23 22 21 19 18 16 14 14 13 13 13 11 10 9 8 8 8 8 7
15 17 17 18 18 16 16 17 19 19 18 18 19 20 21 21 19 18 16 14 12 11 11 10 8 5 4 3 3 2 2 2 2 3 5 8 10 11 12 12 10 9 9 8 11 14 14 12 12 12 14 15 16 17 18 18 19 19 18 18 19 20 20 20 20 21 22 21 20 18 17 16 14 13 12 11 10 9 9 9 8 8 8 8 8
15 18 17 17 18 17 15 17 19 19 17 18 19 20 21 21 19 18 18 16 15 14 12 11 9 7 5 4 3 2 2 2 2 3 2 1 4 5 7 6 5 7 9 9 10 11 11 12 13 13 13 14 15 16 17 18 20 22 23 22 22 23 24 23 22 22 21 20 17 16 15 14 13 12 11 9 8 7 8 7 7 7 7 7 8
15 18 19 17 17 16 15 14 15 15 16 17 18 19 20 19 18 18 17 17 16 14 13 12 11 10 8 6 4 3 1 2 3 2 1 0 1 2 3 3 3 5 6 7 8 8 8 9 8 8 8 8 9 10 11 12 15 18 21 21 19 20 24 27 27 25 23 20 18 16 15 13 12 12 11 10 8 8 9 9 9 8 8 7 8
14 15 18 19 18 17 16 14 13 14 15 17 19 20 20 19 18 18 17 15 14 13 12 12 11 11 10 9 8 7 6 6 6 3 1 2 2 1 2 2 2 2 1 2 4 4 2 3 1 0 0 1 2 4 5 7 8 11 13 14 12 14 20 26 27 26 24 22 20 17 16 15 15 14 12 11 10 11 12 13 11 10 9 8 8
12 14 17 19 19 18 16 14 13 14 15 16 19 21 20 19 19 17 15 14 13 12 11 11 11 12 11 10 10 9 8 8 8 6 5 5 5 4 4 4 3 2 4 6 5 4 5 7 6 6 6 6 5 4 4 5 5 5 6 6 5 7 12 17 20 22 22 22 21 20 20 19 17 15 14 12 12 13 14 14 11 9 9 8 8
12 14 16 19 19 18 17 15 15 15 15 16 19 19 19 19 17 15 14 13 12 12 11 12 12 12 12 11 10 9 8 7 6 6 6 7 7 7 6 6 6 5 5 6 7 7 8 9 9 8 7 6 6 7 8 9 10 8 7 6 5 3 3 6 8 10 12 15 17 20 21 19 16 15 14 12 12 13 14 14 11 10 10 10 10
14 15 18 21 21 19 18 17 15 14 14 15 17 18 17 16 15 13 12 12 11 11 11 11 11 11 10 10 9 8 8 7 7 6 6 7 7 7 7 7 7 7 7 8 8 8 9 9 9 8 7 6 6 7 9 11 12 12 11 11 11 9 8 6 4 2 2 4 7 10 12 13 11 11 10 10 11 12 13 14 13 12 11 11 11
14 15 17 20 20 20 19 17 15 14 13 13 15 16 16 14 12 11 11 11 11 10 10 10 10 10 10 10 9 8 7 7 6 6 6 7 6 6 7 7 7 6 7 8 9 9 9 9 8 6 6 5 5 6 8 10 10 11 11 12 12 12 12 11 8 7 5 3 2 0 2 3 4 6 9 10 12 13 13 13 13 11 11 10 9
14 15 16 18 19 19 19 18 16 14 13 13 13 14 14 12 9 9 9 9 9 9 9 9 9 9 9 9 9 8 8 7 6 6 6 7 6 6 6 6 6 7 7 7 7 7 8 8 6 4 3 3 3 4 6 7 8 9 9 10 9 9 9 9 9 9 9 8 6 4 3 4 6 9 11 13 13 12 11 9 7 6 5 5 4
13 13 13 15 16 16 16 16 15 13 12 11 11 11 11 9 7 7 6 5 6 6 7 7 7 6 6 6 5 4 5 5 5 5 6 7 6 6 5 5 5 6 7 8 6 6 7 7 5 4 3 2 1 2 5 7 8 8 9 10 10 9 8 6 6 7 8 8 7 5 4 5 6 6 7 7 7 7 6 6 5 5 6 5 5
12 11 10 11 13 13 13 13 12 11 10 10 10 9 9 8 7 6 5 4 5 5 4 5 5 4 4 4 3 2 2 3 3 4 5 6 6 5 5 5 5 4 5 7 8 8 8 7 6 4 2 2 1 3 6 8 8 9 11 11 11 11 9 7 5 4 4 4 3 1 1 3 5 7 8 9 10 11 12 12 12 13 13 12 11
12 11 11 12 13 12 11 11 11 9 9 9 9 9 8 7 7 6 5 5 5 4 3 3 4 3 3 3 2 2 2 2 2 2 3 3 4 4 4 4 4 4 4 4 6 7 7 7 5 3 3 4 4 5 7 8 9 10 11 11 11 10 9 7 5 3 2 1 1 3 5 9 13 16 17 18 19 20 20 20 19 18 18 17 16
12 11 11 12 12 11 11 11 10 9 8 8 8 8 7 5 4 3 3 4 4 3 2 1 2 2 1 1 2 2 2 2 2 1 1 1 2 3 4 3 2 2 2 2 3 4 5 4 4 4 5 6 6 7 8 9 10 10 9 9 9 8 6 5 4 3 3 4 5 7 9 11 14 16 18 19 19 20 21 21 20 19 18 17 16
12 12 12 11 11 10 10 10 10 8 7 7 6 5 4 3 2 2 1 2 4 4 2 1 2 2 2 2 1 1 1 1 0 0 1 1 2 3 3 4 3 2 1 2 3 3 3 4 4 5 6 6 6 7 8 8 8 7 6 6 6 5 3 4 4 4 7 9 11 12 12 12 13 15 16 17 17 18 18 19 19 19 18 17 16
Wind_Direction
173 174 175 173 172 171 171 171 169 170 173 175 176 178 181 183 184 184 183 182 182 185 191 194 194 197 201 204 203 199 197 201 202 200 204 207 210 211 208 207 208 212 215 211 209 206 201 196 186 187 202 197 210 10 61 52 39 38 29 38 60 70 73 89 145 178 165 147 156 167 158 218 243 259 278 285 284 277 276 281 285 279 269 270 270
167 170 172 170 169 171 170 170 171 172 175 179 180 181 184 185 185 186 186 189 189 188 192 194 195 198 198 196 195 194 195 195 191 191 196 202 210 212 210 207 206 212 216 213 212 211 210 209 204 206 206 207 243 266 26 52 51 49 45 45 51 57 60 72 133 160 147 144 149 108 24 314 277 282 293 293 292 280 277 282 280 269 256 256 264
166 168 169 168 168 171 170 171 175 176 178 182 183 182 183 184 186 189 191 194 193 190 193 193 193 196 195 192 192 193 193 190 189 188 189 197 204 207 209 206 203 210 213 212 214 215 218 221 216 217 223 236 240 240 305 68 69 61 54 49 47 53 53 56 111 172 168 155 133 61 6 350 322 309 290 281 302 289 273 274 271 263 251 258 272
169 169 170 168 167 170 173 174 177 179 181 182 182 180 181 184 187 189 191 192 192 190 194 194 189 191 195 196 198 199 199 198 198 195 196 200 201 202 206 204 201 205 208 211 216 219 224 225 221 219 224 231 220 204 174 94 84 69 58 51 49 53 49 46 58 152 183 169 113 63 78 47 334 316 312 288 319 312 265 255 257 268 269 269 280
170 170 172 168 168 172 175 176 176 179 182 182 181 180 182 185 185 186 187 188 189 191 193 193 188 186 187 186 187 191 193 197 198 197 198 201 201 200 203 205 205 205 208 209 213 219 224 224 225 228 223 212 200 195 186 119 86 70 59 50 47 51 48 48 59 78 136 157 102 120 66 20 242 279 334 303 338 22 330 251 258 284 287 277 285
171 171 171 171 171 173 175 176 176 178 182 183 183 183 184 186 186 187 188 188 190 192 193 194 192 187 181 176 175 175 176 185 193 195 198 202 204 204 203 207 208 208 209 207 209 217 223 223 225 230 225 209 200 204 179 135 92 74 58 43 42 48 53 68 79 82 87 79 51 297 285 284 238 291 27 284 337 33 67 134 279 356 345 298 313
173 173 171 172 172 172 175 177 177 179 182 184 183 185 186 188 189 191 192 192 193 195 196 197 194 190 186 184 184 181 180 186 194 199 202 205 209 208 204 203 207 210 208 207 211 217 221 224 224 225 223 217 216 206 166 153 130 88 51 40 48 52 60 72 77 80 80 64 41 14 339 224 205 35 132 249 337 12 30 37 43 16 19 12 356
172 176 173 173 174 175 178 179 180 180 181 182 183 186 188 190 192 193 193 194 196 197 198 198 196 193 193 193 193 194 195 197 200 205 208 209 213 214 210 205 204 204 204 207 215 222 226 225 225 227 219 216 224 228 251 209 183 155 36 25 47 51 57 62 62 62 61 57 51 36 28 87 138 8 116 127 122 224 328 339 338 347 2 20 4
171 177 176 177 177 179 182 181 181 181 180 182 184 187 190 191 193 194 194 195 197 198 198 199 199 198 197 199 200 202 206 207 206 207 207 208 214 217 215 209 201 199 205 212 221 233 235 228 228 230 221 218 224 235 262 239 201 194 219 269 323 20 30 40 47 47 49 53 51 40 35 41 43 47 101 122 120 139 293 294 322 338 346 3 5
172 177 178 180 181 182 183 182 181 181 182 184 186 188 190 191 193 194 196 198 199 199 200 201 201 201 201 203 204 205 207 207 204 204 205 208 215 218 216 211 205 206 213 218 225 235 237 231 228 224 221 223 223 231 249 241 217 214 238 254 280 328 338 350 21 35 43 51 41 30 27 23 15 39 68 78 90 99 252 278 315 334 326 328 344
176 178 180 182 184 183 182 181 181 182 182 183 185 189 190 191 194 196 198 200 200 202 204 205 205 206 207 207 208 206 204 202 199 200 205 210 215 217 214 209 209 214 222 223 224 232 234 231 227 219 216 221 224 234 243 242 240 241 250 262 296 314 315 313 324 5 25 30 24 18 21 20 6 327 331 325 299 291 282 294 313 333 320 317 335
179 180 181 181 182 182 181 181 181 181 181 182 185 188 190 192 195 196 197 200 202 204 207 209 210 210 212 212 211 209 205 202 201 203 207 211 214 214 211 208 210 217 223 224 223 229 232 227 224 219 215 218 224 233 239 244 248 245 249 269 301 308 305 309 309 331 356 1 2 359 4 11 12 359 334 312 289 275 279 295 313 338 323 313 334
182 181 181 180 179 181 182 182 180 180 181 184 186 187 189 192 195 197 198 201 205 208 209 210 212 213 215 214 212 211 209 206 206 208 211 213 214 214 211 208 211 215 218 222 226 233 234 228 227 224 220 225 231 237 240 244 245 243 255 278 289 295 295 303 314 335 351 353 350 346 341 346 359 3 352 333 304 281 312 320 312 327 302 301 328
184 183 181 183 183 182 184 183 181 182 184 185 186 187 189 191 194 197 200 203 207 208 209 211 213 216 217 215 213 212 212 210 211 214 215 214 215 215 214 212 214 217 220 226 231 236 238 233 232 231 229 234 242 244 243 241 247 251 257 264 270 276 275 284 307 321 338 345 345 345 341 328 328 338 345 346 331 300 322 333 328 330 304 297 324
181 186 185 186 186 185 185 184 184 185 186 186 187 188 189 191 194 198 200 203 205 207 209 211 213 215 217 215 213 214 214 213 216 220 220 217 218 219 218 219 221 223 226 231 233 234 235 231 232 235 236 240 244 246 246 245 251 253 250 248 253 261 260 269 294 304 315 329 337 340 335 325 316 322 330 337 337 319 320 322 331 356 337 314 328
178 186 189 189 188 187 186 186 187 187 187 187 188 189 190 192 195 198 201 203 205 207 210 212 213 214 216 215 215 216 217 218 220 223 223 222 223 223 222 224 228 230 232 234 234 233 230 229 232 237 239 241 244 248 252 252 254 254 249 246 250 256 259 266 279 287 296 307 317 327 330 327 316 309 309 317 323 319 318 313 301 308 3 322 330
179 185 187 189 190 189 188 188 188 188 188 189 191 192 193 194 195 197 200 203 205 207 210 212 213 215 217 217 218 219 220 221 222 223 224 224 225 226 226 228 233 235 235 236 236 233 232 234 237 240 240 242 246 250 253 254 255 253 249 251 257 262 263 263 269 276 282 288 294 303 317 325 318 305 297 303 314 309 306 310 304 290 255 223 279
178 182 185 188 190 191 191 190 190 190 191 192 193 195 195 197 198 198 199 201 204 206 208 211 213 215 218 218 219 221 222 224 224 224 224 224 225 226 227 231 236 235 235 237 236 234 236 238 241 242 243 245 246 246 251 253 250 247 249 256 260 261 260 257 262 270 277 283 284 283 294 315 320 311 297 296 309 308 302 303 299 291 282 249 220
174 178 182 187 191 193 192 192 193 193 193 194 195 196 196 198 200 200 201 203 204 204 206 209 212 214 217 218 219 221 223 226 226 225 225 226 228 230 231 234 236 236 235 235 234 234 237 240 242 242 244 246 244 244 250 251 245 244 249 256 259 261 263 260 261 267 276 285 284 276 284 307 317 310 303 303 307 310 310 307 300 290 288 279 254
174 173 180 185 190 195 194 193 194 194 195 195 195 195 196 197 199 200 202 203 203 203 204 208 211 213 215 218 219 220 222 225 226 225 226 229 232 233 234 236 237 238 237 236 234 234 237 241 243 243 243 243 240 242 248 246 243 245 246 250 255 260 263 265 268 272 277 286 288 283 290 308 314 305 303 306 304 305 310 310 308 301 292 285 273
174 175 183 186 189 195 196 195 194 195 196 195 194 195 197 197 198 199 200 201 201 202 203 206 210 211 214 217 218 219 221 223 225 226 227 231 233 233 233 237 241 241 240 238 238 237 238 241 241 241 243 242 240 243 245 241 242 247 249 252 257 260 261 263 272 281 287 292 293 290 292 298 303 301 300 303 302 301 305 305 302 300 296 288 279
171 164 158 163 179 195 200 198 196 194 194 195 195 195 196 196 197 197 198 200 201 202 203 206 208 210 214 217 218 220 222 223 224 226 229 230 231 231 232 237 241 243 242 241 243 244 241 240 241 242 244 243 243 246 247 244 244 248 252 256 259 260 260 262 271 282 292 295 291 286 285 286 288 288 286 289 293 295 301 302 292 285 290 292 285
145 129 115 107 98 85 219 208 201 198 196 194 194 195 196 196 195 195 197 200 202 202 203 205 208 211 214 217 220 223 224 225 225 228 230 229 227 230 233 237 241 242 242 241 245 247 244 242 244 246 247 246 245 246 247 247 248 249 251 254 256 257 259 262 268 277 288 291 286 281 280 284 286 282 278 281 288 293 296 297 290 285 289 294 294
129 124 130 129 122 110 83 58 179 205 206 202 197 195 195 195 194 194 196 200 201 202 202 204 207 211 214 216 219 223 225 226 228 230 231 228 227 230 233 235 238 239 240 243 246 248 247 245 246 249 249 247 244 243 244 247 250 252 253 254 256 257 258 262 265 270 279 284 283 278 277 281 283 282 282 285 288 289 290 290 287 285 288 293 299
140 141 145 144 142 140 135 143 149 110 54 316 232 206 197 195 195 194 196 199 200 200 201 203 206 209 212 216 219 223 226 227 228 230 230 229 228 231 233 236 238 239 241 246 249 250 250 249 249 249 247 244 242 242 245 247 250 253 254 254 255 257 259 263 266 269 273 277 278 277 276 280 282 282 283 286 287 286 286 286 282 279 286 294 297
160 159 160 159 158 158 159 169 176 162 134 88 9 300 209 193 191 190 191 193 196 200 200 201 204 207 210 214 218 223 226 226 225 226 228 229 229 231 236 240 242 242 244 247 249 252 254 252 250 248 246 245 245 245 247 250 251 252 253 254 255 258 262 265 268 269 271 272 274 276 278 278 278 282 286 286 285 283 283 283 280 279 288 296 292
166 167 173 168 164 168 169 171 170 162 151 142 123 89 85 108 149 173 182 186 189 198 201 201 203 206 210 214 219 224 227 226 225 225 227 229 231 235 241 245 245 244 244 247 250 253 256 254 250 247 246 248 249 250 251 252 253 252 252 253 254 258 263 268 270 270 270 271 272 274 278 277 274 278 285 286 282 281 281 279 279 283 292 296 290
150 159 178 175 169 171 168 165 159 151 146 146 145 145 146 153 167 178 185 188 190 195 201 202 204 206 210 216 220 225 228 230 230 229 228 230 234 241 246 246 246 247 249 252 254 255 256 253 250 248 249 249 251 252 252 252 252 251 251 252 254 257 262 268 271 270 270 273 272 272 273 272 272 275 282 286 286 287 285 278 275 282 291 292 285
135 150 167 168 167 167 161 157 150 143 142 145 149 155 163 174 184 191 191 189 191 196 199 201 205 207 212 217 220 224 228 233 234 233 232 232 236 242 246 247 247 250 253 255 255 254 254 253 252 253 253 252 251 252 252 251 250 249 251 253 255 257 260 265 269 270 272 273 271 271 270 268 269 272 276 281 283 286 287 281 277 282 287 285 275
119 134 153 160 150 148 153 152 147 143 140 142 149 157 164 172 181 188 190 190 193 198 198 199 203 208 213 216 218 222 228 232 233 233 234 235 236 240 242 241 239 239 242 246 248 249 250 253 255 257 257 256 253 252 252 251 248 250 253 254 256 258 259 262 265 266 270 271 271 271 270 264 260 259 261 264 270 276 280 280 282 284 283 275 262
114 120 127 128 125 132 138 137 138 143 140 138 143 152 157 163 171 180 187 192 197 200 200 201 203 207 211 215 217 221 225 227 228 229 232 235 236 239 239 235 232 232 236 240 243 246 249 253 257 258 257 256 253 251 251 249 246 248 253 255 256 258 259 260 261 262 265 268 268 267 262 254 249 250 253 256 262 270 273 275 276 275 273 267 256
136 132 122 115 110 115 126 126 128 139 145 139 137 141 149 157 166 175 183 189 194 195 196 198 201 207 211 212 215 215 217 220 221 223 227 229 232 236 236 232 230 231 235 238 241 245 249 254 260 263 261 255 250 248 247 245 242 243 248 253 257 258 259 259 259 260 261 261 260 258 252 244 243 247 255 262 266 270 272 274 272 265 262 261 255
109 110 108 105 96 93 101 110 118 132 148 153 147 140 141 148 157 166 172 175 179 182 184 187 195 205 207 206 208 209 209 212 213 216 221 223 225 229 227 223 222 224 227 230 232 237 242 248 254 260 265 259 251 248 245 242 241 242 245 250 254 258 260 261 260 258 256 253 250 247 241 237 241 249 260 270 274 274 272 273 272 264 257 253 247
77 90 95 96 97 98 102 106 112 122 135 151 157 152 146 146 151 157 165 172 177 177 176 178 186 194 198 201 208 213 216 218 217 217 221 220 218 217 212 210 212 216 221 227 231 234 237 244 249 252 255 257 256 252 246 242 242 244 249 252 255 258 261 263 262 257 250 245 244 240 235 236 245 255 265 272 274 273 271 270 269 262 251 244 241
70 73 73 77 84 89 94 99 107 119 128 137 147 152 152 150 151 157 164 174 179 176 172 176 182 189 195 202 211 218 225 230 228 227 227 226 225 223 219 219 220 223 231 237 242 244 243 243 246 248 250 251 254 254 251 249 247 247 249 251 253 260 267 268 263 254 245 242 242 236 231 234 244 255 265 270 270 270 269 264 260 254 243 237 236
72 71 69 72 80 88 96 101 107 119 128 133 137 140 138 137 144 153 157 163 166 162 160 169 180 188 196 204 213 222 230 235 234 229 223 223 227 228 230 233 234 238 245 246 250 266 276 270 258 253 250 247 247 250 250 252 251 248 251 251 249 255 263 267 263 252 243 238 234 228 228 236 245 253 260 265 266 265 262 253 245 240 236 235 240
76 73 76 82 87 93 100 103 104 109 117 123 130 134 133 132 138 146 149 151 147 135 132 141 151 164 183 197 211 226 237 240 240 236 230 233 238 242 250 259 267 278 286 287 276 270 274 279 270 258 250 245 246 248 248 251 251 246 250 257 256 252 251 252 252 247 237 230 226 226 231 238 243 246 250 255 259 258 250 241 236 233 238 248 253
90 87 85 90 96 100 104 106 105 106 112 119 126 130 128 125 129 136 141 142 132 119 118 121 121 129 149 168 188 204 212 220 229 229 236 247 250 251 258 265 270 274 279 284 278 268 262 262 260 253 248 246 250 252 252 252 251 249 254 262 264 259 250 241 238 235 230 227 225 227 232 235 234 236 238 242 247 247 241 238 237 236 243 251 251
94 98 97 99 103 105 107 108 107 108 115 123 128 129 123 119 121 127 128 124 118 114 113 113 113 116 123 134 153 175 192 183 125 86 86 257 259 258 269 279 279 276 278 282 284 276 262 255 253 251 251 252 256 259 259 258 256 259 266 266 260 257 252 244 237 234 232 229 224 220 222 224 223 222 223 222 224 233 244 247 246 246 246 245 242
89 96 98 99 100 98 96 98 101 107 116 124 128 124 117 115 117 118 113 108 109 111 110 109 108 107 106 106 105 109 119 96 73 39 10 354 292 283 308 334 325 297 289 282 271 258 244 242 250 254 258 265 273 277 281 279 273 272 275 271 261 253 249 246 241 236 231 224 217 214 213 213 213 213 211 210 217 240 258 261 258 256 252 245 238
95 100 101 99 96 95 96 98 104 111 114 118 119 112 107 108 109 105 102 103 107 109 108 106 102 98 94 88 83 81 79 88 99 114 135 105 100 100 70 35 351 305 237 178 213 222 178 118 88 37 269 334 336 318 307 301 292 285 286 289 282 260 247 242 237 231 226 218 210 208 208 206 208 211 211 214 225 242 252 254 251 248 245 246 246
103 104 103 102 99 99 101 104 109 112 112 114 113 107 104 107 106 104 107 110 111 110 108 105 99 93 89 84 83 85 87 97 108 111 101 91 85 84 83 75 69 72 92 106 119 119 107 104 103 98 91 83 70 49 28 13 355 329 318 326 318 272 254 247 237 226 221 214 205 202 203 201 201 206 211 218 227 236 243 247 247 243 244 252 259
108 106 107 106 103 101 101 103 107 109 109 111 109 105 102 102 101 103 108 111 111 110 108 106 101 93 87 84 84 85 88 93 94 88 82 79 76 79 88 96 103 105 101 99 103 111 115 115 113 106 94 83 74 61 49 43 37 28 20 19 17 355 299 274 246 220 211 207 199 194 194 196 198 203 210 220 228 234 242 249 250 247 248 254 263
106 109 112 109 105 103 103 104 106 106 106 107 105 100 97 95 93 96 100 100 103 107 107 105 101 94 88 87 88 89 90 87 80 72 73 75 77 83 96 109 114 112 111 114 117 122 123 118 112 106 95 84 76 62 49 44 43 40 35 30 21 11 2 350 330 295 239 212 194 185 185 192 202 212 221 230 235 241 248 255 257 257 257 260 265
104 107 109 107 106 107 107 107 105 102 99 99 99 97 92 87 86 88 89 89 91 95 99 100 98 95 94 91 91 90 87 82 78 72 71 75 80 88 103 124 136 128 121 125 129 132 131 125 118 108 93 84 77 56 37 31 33 34 34 32 26 11 359 353 344 331 321 319 326 14 158 188 231 253 256 252 251 253 258 261 262 262 261 262 261
108 108 109 109 109 109 109 109 108 106 102 97 96 96 93 90 90 90 88 88 89 88 90 91 93 98 99 92 85 78 72 70 77 83 78 76 77 84 99 126 145 149 145 140 141 148 148 140 135 129 116 98 74 43 18 12 17 19 19 19 18 10 357 348 340 334 330 327 328 339 351 324 297 282 271 265 260 255 251 249 248 245 240 236 229
115 112 110 109 107 105 106 108 107 108 107 102 100 100 98 98 100 95 89 89 86 83 84 83 84 89 91 83 71 59 52 56 68 80 83 78 77 85 96 107 124 151 163 163 168 178 173 166 169 170 164 156 114 6 340 343 352 356 0 2 358 355 351 342 334 331 327 322 319 321 328 318 298 280 267 257 242 223 206 192 173 155 144 138 140
127 122 116 110 105 102 102 103 105 107 104 98 97 100 101 100 96 88 80 73 66 64 67 68 64 59 58 50 35 19 29 50 69 88 94 89 85 85 93 98 101 120 160 179 193 203 206 208 212 210 209 218 263 310 317 326 333 337 344 346 344 344 345 342 341 341 333 329 323 313 46 69 96 104 103 108 113 114 114 115 117 120 122 123 127
138 133 126 119 114 111 109 107 108 109 102 94 93 96 99 98 89 78 68 59 51 47 45 41 30 25 29 27 27 42 60 62 79 101 96 82 73 67 74 92 101 103 117 157 191 206 218 231 240 251 274 284 295 303 309 316 321 327 333 333 333 339 343 344 349 6 28 34 118 144 118 103 104 103 98 95 95 95 97 99 103 107 111 113 115
145 139 133 128 123 120 117 117 118 115 105 100 99 97 95 89 70 51 46 45 43 44 46 15 16 41 87 84 71 90 95 79 70 62 6 1 32 41 43 51 74 121 136 145 166 183 196 216 237 261 274 279 287 295 302 309 316 324 330 326 327 338 353 6 17 51 96 112 130 136 123 111 108 105 99 95 92 92 92 92 95 99 102 103 103
152 148 144 142 139 135 130 129 132 128 118 114 112 106 99 83 37 6 22 56 50 50 68 129 130 123 136 140 128 146 164 161 123 53 33 64 68 46 36 37 41 58 137 178 194 204 216 235 250 265 274 282 292 301 309 314 322 335 341 331 329 348 43 75 81 101 116 121 123 120 114 111 109 104 100 98 99 99 95 93 93 94 94 95 96
Height
812 814 815 817 819 821 823 825 826 828 830 831 833 834 836 837 839 840 842 843 845 846 847 849 850 851 851 852 853 854 855 856 856 857 858 859 859 859 860 860 861 861 862 862 862 862 862 863 863 863 863 863 863 863 863 863 862 861 860 860 859 859 859 858 858 858 858 858 859 859 859 859 859 859 858 858 858 858 857 858 858 857 857 856 856
812 814 815 817 819 821 823 825 826 827 829 831 832 834 835 837 838 840 841 843 844 845 846 848 849 850 850 851 852 853 854 855 856 857 858 858 859 859 860 861 861 862 862 862 862 862 863 863 863 864 864 864 864 864 864 863 863 862 861 861 860 860 859 859 859 859 859 859 860 860 860 860 859 858 858 858 858 858 857 857 857 857 857 857 856
812 814 815 816 818 820 822 824 826 827 828 830 832 833 835 836 838 839 840 841 843 844 845 847 848 849 850 851 852 853 854 855 856 857 858 858 859 859 860 861 861 862 862 862 862 863 863 863 864 864 864 864 864 864 864 863 863 862 862 861 861 861 860 860 860 859 860 860 860 862 862 862 861 859 858 858 858 857 857 857 857 857 857 857 857
813 814 814 816 818 820 822 823 825 827 828 830 831 833 834 835 837 838 840 841 842 843 845 846 848 849 850 851 852 853 854 855 856 857 858 858 859 859 860 861 861 862 862 862 863 863 863 864 864 864 864 864 864 864 864 864 863 863 862 862 862 861 861 861 860 860 860 860 861 863 864 865 866 862 858 858 858 857 857 857 857 857 857 857 857
812 813 814 815 817 819 821 822 824 826 828 829 830 831 833 834 836 838 839 840 841 843 844 845 847 848 849 851 852 853 853 854 855 856 857 858 858 859 859 860 861 862 862 862 863 863 863 864 864 864 864 864 864 864 864 864 864 864 863 863 863 862 862 861 861 860 861 860 861 863 865 867 867 862 860 859 858 857 857 857 857 857 857 857 857
808 811 812 814 816 818 820 821 823 824 826 828 830 831 832 834 835 837 838 840 841 842 843 845 846 847 848 849 850 851 853 853 854 855 856 857 858 858 859 860 860 861 862 862 863 863 863 864 864 864 864 864 864 864 864 864 864 864 864 864 863 863 862 862 862 861 861 861 861 862 863 865 863 861 863 863 859 857 857 857 858 858 857 857 857
807 808 810 812 815 817 819 820 821 823 825 827 829 831 832 833 835 836 838 839 840 841 843 844 845 847 847 848 849 850 851 852 853 855 855 856 857 858 859 859 860 860 861 862 862 863 863 863 864 864 864 864 864 864 864 864 865 864 864 864 864 863 863 862 862 862 862 862 861 861 861 861 861 861 862 864 863 861 858 858 858 858 857 857 856
807 808 809 810 813 815 817 818 819 821 824 826 828 830 831 833 834 835 837 838 839 841 842 843 844 846 847 848 849 850 851 852 853 854 855 856 857 858 858 859 859 860 860 861 861 862 862 863 863 863 864 864 864 864 864 864 865 865 865 864 864 864 863 863 863 863 862 862 862 862 861 861 861 861 861 862 864 864 861 858 858 857 857 857 856
804 807 808 809 810 813 814 816 818 820 822 825 827 829 830 832 834 835 836 838 839 840 841 843 844 845 846 847 848 849 850 851 853 854 855 856 856 857 858 858 859 859 860 860 861 861 862 862 863 863 863 863 864 864 864 864 864 865 865 864 864 864 864 864 863 863 863 863 862 862 862 862 861 861 861 861 861 864 863 860 858 857 856 856 856
801 803 805 807 809 811 813 815 817 819 821 823 825 828 829 831 833 834 836 837 838 840 841 842 844 845 846 846 847 849 850 851 852 853 854 855 856 856 857 858 858 859 859 860 860 861 861 862 862 862 863 863 863 863 864 864 864 864 864 864 864 864 864 864 864 863 863 863 863 863 862 862 862 861 861 861 860 861 862 860 859 858 857 856 856
800 802 803 806 807 809 812 814 816 817 819 822 824 826 828 830 832 833 835 837 838 839 841 842 843 844 845 846 847 848 849 850 851 852 853 854 855 856 856 857 858 859 859 859 860 860 861 861 861 862 862 862 863 863 863 864 864 864 864 864 864 864 864 864 864 864 864 863 863 863 862 862 862 862 861 861 860 860 861 860 859 859 858 857 856
800 802 803 805 808 810 812 813 815 817 819 821 822 824 827 829 831 832 834 836 837 839 840 842 843 843 844 845 846 847 848 849 850 851 852 853 854 855 856 857 857 858 859 859 859 860 860 861 861 861 862 862 862 862 863 863 863 864 864 864 864 864 864 864 864 864 864 863 863 863 862 862 862 862 861 861 860 860 860 860 859 859 858 857 856
799 801 803 805 807 808 810 812 814 816 817 819 821 823 825 827 829 831 833 835 837 838 840 841 842 843 844 845 845 847 848 848 849 850 851 852 853 854 855 856 856 857 857 858 858 859 860 860 861 861 861 862 862 862 863 863 863 863 863 864 864 864 864 864 864 864 864 863 863 862 862 862 862 861 861 861 860 860 860 860 859 859 858 857 857
798 800 801 803 805 806 808 810 812 814 816 818 819 821 824 826 828 830 832 834 836 837 839 840 841 842 843 844 845 846 847 848 849 850 851 852 852 853 854 855 855 856 856 857 858 858 859 859 860 860 861 861 861 862 862 862 863 863 863 863 863 863 864 864 864 864 864 863 863 862 862 862 862 861 861 861 860 860 860 860 860 859 859 857 857
797 798 799 800 802 804 806 808 810 812 814 816 818 820 822 824 826 828 830 832 834 836 838 839 840 842 842 843 844 845 846 847 848 849 850 851 852 852 853 854 854 855 856 856 857 857 858 858 859 859 860 861 861 861 862 862 862 862 862 862 863 863 863 863 863 863 863 863 863 862 862 862 862 861 861 861 860 860 860 860 860 860 860 859 857
795 796 797 798 800 802 804 806 808 810 813 815 817 818 820 822 824 827 829 831 833 835 837 838 840 841 842 843 844 845 846 847 847 848 849 850 851 851 852 853 854 855 855 856 856 857 857 858 858 859 859 860 861 861 861 862 862 862 862 862 862 863 862 862 862 862 862 862 862 862 862 861 861 861 861 861 860 860 860 860 860 860 861 861 859
792 793 795 796 798 800 802 804 806 808 810 813 814 816 818 820 822 825 827 829 832 833 835 837 839 840 841 842 844 844 845 846 847 848 849 849 850 851 852 853 853 854 855 855 856 856 857 857 857 858 859 859 860 860 861 861 861 861 861 862 862 862 862 862 862 862 862 862 861 861 861 861 861 861 860 860 860 860 860 860 860 859 859 861 861
790 790 792 795 797 799 801 802 804 805 808 810 812 815 817 819 821 823 826 827 829 832 833 836 837 839 840 841 843 844 845 846 847 847 848 849 850 851 851 852 853 853 854 854 855 855 856 857 857 857 858 858 859 859 860 860 860 861 861 861 861 861 861 861 861 861 860 860 860 860 860 860 860 860 860 860 860 860 860 859 859 859 858 858 859
789 790 791 793 795 798 799 801 803 804 806 808 810 813 815 817 819 821 823 825 827 830 832 834 836 837 839 840 842 843 844 845 846 847 848 849 849 850 851 852 852 853 853 854 854 855 855 856 856 857 857 858 858 859 859 859 859 860 860 860 860 860 860 860 860 860 859 859 859 859 859 859 859 859 859 859 859 859 859 859 859 858 858 858 857
788 789 790 791 793 796 797 799 801 802 804 806 809 812 813 816 818 820 822 824 827 829 831 833 835 836 838 840 841 843 844 845 846 847 847 848 849 850 851 851 852 852 853 853 854 854 854 855 855 856 856 857 857 858 858 858 858 859 859 859 859 859 859 859 859 859 859 859 858 858 859 859 859 859 859 859 859 859 859 858 858 858 857 858 857
786 787 787 788 790 793 795 798 799 801 803 805 807 810 812 814 816 818 821 824 826 828 830 831 833 835 837 839 840 842 843 844 845 846 847 847 849 849 850 851 851 852 852 852 853 853 853 854 854 855 856 856 856 857 857 857 858 858 858 858 858 858 858 858 858 858 858 858 858 858 858 858 858 858 858 858 858 857 857 857 857 857 856 857 856
784 785 786 788 790 793 796 797 798 800 801 803 806 808 811 813 815 818 820 822 824 826 829 831 832 834 836 837 839 841 842 844 844 845 846 847 848 848 849 850 850 851 851 851 852 852 853 853 853 854 855 855 856 856 856 856 856 857 857 857 857 857 857 857 857 858 858 858 858 857 857 857 857 857 856 856 856 856 856 856 856 856 855 855 855
782 784 786 788 790 794 797 798 799 800 800 802 804 807 810 812 814 817 819 821 823 825 827 830 832 833 835 837 839 840 841 843 844 844 845 846 847 847 848 849 849 849 850 850 851 851 851 852 853 853 854 854 855 855 855 855 855 855 855 856 856 856 856 857 857 857 857 857 856 856 856 856 856 855 855 855 855 855 855 854 854 855 854 854 854
781 783 784 784 786 790 795 799 801 802 803 804 804 805 808 811 813 815 817 819 822 824 826 828 830 832 834 836 837 839 840 842 842 843 844 845 846 846 847 847 848 848 849 849 849 850 850 851 851 852 852 853 853 853 854 854 854 854 854 854 855 855 855 856 856 856 856 856 855 855 855 855 854 854 854 854 854 854 854 853 853 853 853 853 852
780 781 781 782 783 786 791 796 799 801 803 806 808 808 807 809 811 813 815 818 820 822 824 827 829 831 833 834 836 837 838 839 840 841 842 843 844 845 845 846 846 847 847 848 848 848 849 849 850 850 851 851 852 852 852 853 853 853 853 853 853 854 854 854 854 854 854 854 854 854 854 853 853 853 853 852 852 852 852 852 852 852 852 852 851
779 778 778 778 779 783 787 792 795 797 799 803 809 812 811 811 812 813 815 818 820 822 823 824 827 828 830 832 834 835 836 836 837 839 840 842 842 843 844 845 845 846 846 846 847 847 847 848 848 848 849 849 850 850 851 851 851 852 852 852 852 853 853 853 853 853 853 853 853 852 852 852 852 852 852 851 851 851 851 851 850 850 850 850 850
779 778 778 777 777 780 784 787 791 793 795 797 803 811 815 817 816 814 814 816 820 823 823 824 825 826 828 830 831 833 834 835 836 837 839 840 841 842 843 843 844 845 845 845 845 846 846 846 846 846 847 847 848 848 849 849 850 850 850 851 851 851 851 851 851 851 851 851 851 851 851 851 851 850 850 850 850 849 849 849 849 849 849 849 849
780 780 781 780 780 780 782 786 789 791 794 795 798 804 810 815 816 815 816 816 818 822 824 825 825 826 827 828 830 832 833 834 835 836 837 838 839 840 841 842 842 842 843 843 843 844 844 844 845 845 845 845 846 846 847 847 848 848 849 849 849 850 850 850 850 850 850 850 849 849 849 849 849 849 849 848 848 848 848 848 848 848 848 848 847
783 783 783 783 783 783 785 788 790 792 794 795 797 800 803 807 809 811 814 816 817 819 821 823 825 826 827 828 829 830 831 833 834 835 836 837 838 839 839 840 840 840 841 841 841 842 842 842 842 842 843 843 844 844 845 845 846 847 847 847 848 848 848 848 848 848 848 848 848 848 847 847 847 847 847 847 847 847 846 846 846 846 847 846 846
784 785 785 785 786 786 788 790 792 793 793 794 796 798 800 803 804 807 811 813 815 817 818 820 822 824 826 827 827 828 830 831 832 833 834 835 836 837 838 838 839 839 839 839 839 840 840 840 840 840 841 841 841 842 843 843 844 845 845 845 846 846 846 846 846 846 847 847 846 846 846 846 846 846 846 846 845 845 845 845 845 845 845 845 845
784 784 785 786 787 788 790 792 794 794 793 793 794 796 798 801 804 806 808 810 813 816 817 819 820 821 823 825 826 827 828 829 830 831 832 833 834 835 836 836 837 837 837 837 838 838 838 838 838 838 839 839 839 840 840 841 842 843 844 844 844 844 844 844 844 845 845 845 845 845 845 845 844 844 844 844 844 844 844 844 844 844 844 844 844
784 784 785 787 788 790 791 793 795 795 795 794 794 795 797 800 803 806 807 809 812 815 817 818 819 820 822 823 825 826 827 828 829 830 831 831 832 832 833 834 835 835 835 835 836 836 836 837 837 837 837 837 837 838 838 839 840 841 842 842 842 843 842 842 842 842 843 843 843 844 844 844 843 843 843 843 843 843 842 842 842 842 843 843 843
785 785 786 788 789 790 792 793 794 795 796 796 796 797 799 800 803 805 807 809 812 815 817 817 818 820 821 822 824 825 826 827 827 828 829 829 830 831 831 832 833 834 834 833 833 834 834 835 835 835 836 836 836 836 837 838 838 839 840 840 840 841 841 840 840 840 840 841 841 842 842 842 842 842 842 842 841 841 841 841 841 841 841 841 841
787 787 788 789 789 790 791 792 793 794 796 798 798 799 800 802 804 807 810 812 814 816 817 817 817 819 820 822 823 824 825 826 826 826 827 828 829 829 830 831 831 832 832 831 832 832 833 833 834 834 835 835 835 835 836 836 837 837 838 838 838 838 838 838 838 837 838 838 839 839 840 840 841 841 840 840 840 840 840 840 839 839 839 840 840
790 790 791 791 791 792 792 792 793 794 795 798 799 800 802 804 805 807 810 813 816 817 817 817 818 819 820 821 822 822 823 824 825 825 826 827 828 828 828 829 829 829 829 829 830 831 831 832 833 833 834 834 834 834 834 835 835 835 835 835 835 835 836 835 835 835 835 836 837 837 837 838 838 839 839 839 839 838 838 838 838 838 838 838 838
793 793 793 794 793 793 794 794 795 796 796 797 799 801 803 804 805 807 809 812 815 815 816 817 818 818 819 820 821 821 822 823 824 825 826 826 827 828 828 828 827 827 827 827 828 830 832 832 833 833 833 833 833 833 833 833 834 834 833 833 833 833 833 833 833 833 833 833 834 835 835 836 836 836 837 837 837 837 836 836 837 837 837 837 837
795 795 795 796 796 795 795 797 798 799 799 799 800 801 803 805 805 807 810 813 815 815 816 817 817 817 818 819 820 820 821 822 823 824 825 825 825 826 828 827 827 827 826 826 827 829 831 833 833 833 833 833 832 832 832 832 832 832 832 832 832 831 831 831 832 832 832 832 832 832 833 833 834 834 834 835 836 836 835 835 835 835 836 836 836
797 798 798 798 798 798 798 799 800 801 802 802 803 804 806 807 808 810 812 814 816 817 817 817 818 818 818 819 820 820 821 823 824 824 825 825 825 826 827 828 828 827 826 826 826 827 828 830 831 831 831 831 831 831 831 830 830 830 830 830 831 831 830 830 829 830 830 830 829 830 830 831 831 832 832 833 834 835 835 834 834 834 834 834 835
799 800 801 802 801 801 801 801 802 804 805 805 806 807 808 810 812 813 814 815 817 818 818 818 819 819 820 820 820 821 822 823 825 825 826 826 826 827 827 827 827 826 826 826 826 827 828 829 829 829 828 828 829 829 829 829 829 828 828 829 830 830 829 829 828 827 828 828 828 827 828 829 829 830 830 830 832 834 834 833 833 833 833 833 833
803 804 804 805 805 804 804 804 805 806 808 808 809 809 809 810 812 813 814 815 816 817 818 819 820 820 820 821 821 821 822 823 824 826 826 827 827 827 826 826 825 825 825 826 826 826 826 827 827 827 827 827 828 828 828 828 828 828 827 827 827 827 827 826 825 824 825 827 828 827 826 827 828 828 828 829 830 832 832 832 831 831 831 832 832
807 808 806 807 808 808 808 808 808 809 810 810 811 810 811 812 812 812 814 815 816 817 818 819 819 820 820 821 821 822 823 823 825 826 827 827 827 827 826 825 825 825 825 826 826 825 825 826 827 827 827 828 828 827 827 827 827 827 826 825 825 825 824 823 822 821 822 823 824 824 824 825 826 827 827 827 828 829 830 830 830 830 830 830 830
810 810 809 809 810 811 812 812 812 812 812 812 812 812 813 814 815 815 816 817 817 818 818 819 820 820 821 821 822 823 824 825 827 828 828 828 827 827 826 825 825 824 825 826 827 827 827 828 829 828 828 828 827 827 827 827 827 826 825 824 823 823 822 821 820 819 819 820 820 820 821 822 823 825 826 826 826 827 828 828 828 828 828 829 829
812 812 811 811 812 813 815 815 815 815 816 815 814 814 815 817 817 819 820 820 820 820 820 820 821 822 822 823 824 826 826 827 828 828 828 828 828 827 826 826 825 825 825 826 827 828 829 829 829 829 829 829 829 829 829 829 828 827 827 825 824 823 822 821 820 819 818 818 817 817 817 819 821 822 824 824 825 825 826 827 827 827 827 827 828
812 813 813 813 813 815 816 817 818 818 819 818 817 817 817 818 819 820 821 822 822 822 822 823 823 824 825 826 827 828 829 829 829 830 829 829 829 828 828 827 827 827 827 828 829 829 829 829 829 830 830 830 830 830 830 830 830 829 828 827 826 824 823 823 822 821 819 818 817 816 816 818 820 821 822 823 823 824 825 825 825 825 825 825 826
813 813 813 814 815 816 817 819 820 820 821 820 820 819 819 820 821 822 822 823 824 824 825 825 826 827 828 829 829 830 830 831 831 831 831 831 830 830 829 829 829 829 829 829 830 831 831 830 830 830 830 830 831 831 831 831 831 830 829 828 827 826 825 824 824 822 821 820 818 817 817 818 820 821 822 822 822 823 823 823 823 823 823 824 824
814 814 815 815 816 817 819 820 821 822 822 823 823 822 822 823 824 824 825 825 826 826 827 828 828 829 830 831 831 831 832 832 832 832 832 832 832 832 831 831 830 830 830 831 832 832 832 831 831 831 831 831 832 832 832 832 831 830 829 828 827 827 826 825 824 822 821 819 818 818 818 819 821 821 821 821 821 821 821 821 821 822 822 823 824
816 816 816 817 817 818 820 821 822 824 824 825 825 825 825 826 826 827 827 827 828 828 829 829 830 831 831 832 832 832 833 833 833 834 834 834 834 834 833 833 832 832 832 832 833 833 833 832 832 832 832 833 833 833 832 832 831 830 829 828 828 827 826 825 823 822 821 820 819 820 820 821 821 820 820 820 820 820 820 820 820 821 822 823 824
817 818 818 818 819 820 821 822 823 825 825 826 826 827 828 828 828 828 829 829 829 830 830 831 831 832 832 833 833 833 834 834 835 835 835 835 835 835 835 834 834 834 833 833 833 833 833 833 833 833 833 834 834 833 832 831 831 830 829 828 828 827 826 825 823 822 822 821 821 821 822 822 822 821 820 820 820 820 820 819 820 821 822 824 826
819 820 820 821 822 823 823 824 825 826 827 827 827 828 829 829 829 830 830 830 831 831 831 832 832 833 833 834 834 835 835 835 836 836 836 836 836 836 836 835 835 835 834 834 833 833 834 834 834 834 834 834 834 833 832 831 831 830 829 828 828 827 826 825 824 823 823 822 822 823 823 824 823 822 822 822 822 822 821 821 822 823 824 825 827
820 822 822 823 824 825 825 826 827 827 828 829 829 830 830 831 831 831 832 832 832 832 833 834 834 835 835 835 835 836 836 836 837 837 837 837 836 836 836 836 836 835 835 835 835 835 835 835 835 835 835 834 834 833 832 832 831 830 829 828 827 827 826 825 825 824 823 823 823 823 824 824 824 824 824 824 824 824 824 824 824 825 826 827 828
822 823 824 825 826 826 827 828 828 829 830 830 831 832 832 833 833 833 834 834 835 835 835 836 836 836 837 837 837 837 837 837 837 837 837 837 837 837 837 836 836 836 836 836 836 836 836 836 836 836 835 834 834 833 832 831 830 830 829 828 827 827 826 825 825 825 824 823 823 823 824 826 826 825 825 825 826 825 826 827 827 827 829 829 829